• In Latvia
  • List of Countries
  • For 7 days
  • Water Temperature
  • Satellite Maps
  • Weather Map
  • Weather Widgets
  • user-avatar
    Login

    Hourly Weather Malanville

    Today, 25 September, Tuesday

    Time Temperature Precipitation Wind Pressure Humidity
    00:00 +29°C° 0 mm 3 mps 744 mmHg 67%
    01:00 +28°C° 0 mm 3 mps 743 mmHg 69%
    02:00 +28°C° 0 mm 2 mps 743 mmHg 71%
    03:00 +28°C° 0 mm 2 mps 743 mmHg 72%
    04:00 +27°C° 0 mm 2 mps 743 mmHg 74%
    05:00 +27°C° 0 mm 2 mps 743 mmHg 75%
    06:00 +28°C° 0 mm 1 mps 744 mmHg 76%
    07:00 +29°C° 0 mm 2 mps 744 mmHg 69%
    08:00 +31°C° 0 mm 2 mps 744 mmHg 62%
    09:00 +34°C° 0 mm 2 mps 745 mmHg 56%
    10:00 +36°C° 0 mm 2 mps 744 mmHg 50%
    11:00 +37°C° 0 mm 2 mps 744 mmHg 44%
    12:00 +37°C° 0 mm 1 mps 744 mmHg 43%
    13:00 +38°C° 0 mm 2 mps 743 mmHg 40%
    14:00 +39°C° 0 mm 3 mps 742 mmHg 38%
    15:00 +39°C° 0 mm 3 mps 741 mmHg 35%
    16:00 +38°C° 0 mm 3 mps 741 mmHg 39%
    17:00 +36°C° 0 mm 2 mps 741 mmHg 44%
    18:00 +34°C° 0 mm 2 mps 741 mmHg 48%
    19:00 +34°C° 0 mm 2 mps 742 mmHg 50%
    20:00 +32°C° 0 mm 1 mps 742 mmHg 52%
    21:00 +32°C° 0 mm 1 mps 742 mmHg 53%
    22:00 +31°C° 0 mm 2 mps 742 mmHg 55%
    23:00 +31°C° 0 mm 2 mps 742 mmHg 56%

    Tomorrow, 26 September, Wednesday

    Time Temperature Precipitation Wind Pressure Humidity
    00:00 +30°C° 0 mm 2 mps 742 mmHg 57%
    01:00 +30°C° 0 mm 2 mps 742 mmHg 60%
    02:00 +29°C° 0 mm 2 mps 742 mmHg 63%
    03:00 +29°C° 0 mm 2 mps 741 mmHg 66%
    04:00 +28°C° 0 mm 2 mps 742 mmHg 68%
    05:00 +28°C° 0 mm 2 mps 742 mmHg 70%
    06:00 +27°C° 0 mm 3 mps 742 mmHg 73%
    07:00 +29°C° 0 mm 3 mps 743 mmHg 66%
    08:00 +33°C° 0 mm 3 mps 743 mmHg 60%
    09:00 +35°C° 0 mm 4 mps 744 mmHg 54%
    10:00 +36°C° 0 mm 4 mps 743 mmHg 49%
    11:00 +38°C° 0 mm 4 mps 743 mmHg 43%
    12:00 +40°C° 0 mm 4 mps 742 mmHg 38%
    13:00 +41°C° 0 mm 4 mps 742 mmHg 37%
    14:00 +40°C° 0 mm 3 mps 741 mmHg 35%
    15:00 +42°C° 0 mm 3 mps 740 mmHg 33%
    16:00 +39°C° 0 mm 3 mps 740 mmHg 38%
    17:00 +37°C° 0 mm 3 mps 741 mmHg 43%
    18:00 +35°C° 0 mm 3 mps 741 mmHg 48%
    19:00 +35°C° 0 mm 3 mps 742 mmHg 51%
    20:00 +34°C° 0 mm 3 mps 742 mmHg 54%
    21:00 +33°C° 0 mm 3 mps 743 mmHg 58%
    22:00 +32°C° 0 mm 4 mps 743 mmHg 60%
    23:00 +32°C° 0 mm 4 mps 742 mmHg 63%

    Day after tomorrow, 27 September, Thursday

    Time Temperature Precipitation Wind Pressure Humidity
    00:00 +30°C° 0 mm 4 mps 742 mmHg 65%
    01:00 +30°C° 0 mm 4 mps 742 mmHg 69%
    02:00 +29°C° 0 mm 4 mps 741 mmHg 73%
    03:00 +28°C° 0 mm 3 mps 741 mmHg 77%
    04:00 +28°C° 0 mm 3 mps 741 mmHg 79%
    05:00 +28°C° 0 mm 3 mps 742 mmHg 80%
    06:00 +27°C° 0 mm 3 mps 742 mmHg 82%
    07:00 +29°C° 0 mm 3 mps 743 mmHg 75%
    08:00 +32°C° 0 mm 4 mps 743 mmHg 68%
    09:00 +33°C° 0 mm 5 mps 744 mmHg 62%
    10:00 +35°C° 0 mm 4 mps 744 mmHg 56%
    11:00 +37°C° 0 mm 4 mps 743 mmHg 49%
    12:00 +38°C° 0 mm 3 mps 742 mmHg 43%
    13:00 +39°C° 0 mm 2 mps 742 mmHg 41%
    14:00 +39°C° 0 mm 2 mps 741 mmHg 38%
    15:00 +40°C° 0 mm 1 mps 740 mmHg 35%
    16:00 +39°C° 0 mm 1 mps 740 mmHg 39%
    17:00 +37°C° 0 mm 2 mps 741 mmHg 43%
    18:00 +35°C° 0 mm 2 mps 741 mmHg 47%
    19:00 +35°C° 0 mm 2 mps 741 mmHg 51%
    20:00 +34°C° 0 mm 3 mps 742 mmHg 55%
    21:00 +33°C° 0 mm 3 mps 742 mmHg 59%
    22:00 +33°C° 0 mm 4 mps 742 mmHg 62%
    23:00 +32°C° 0 mm 4 mps 742 mmHg 64%

    28 September, Friday

    Time Temperature Precipitation Wind Pressure Humidity
    00:00 +30°C° 0 mm 4 mps 742 mmHg 67%
    01:00 +29°C° 1 mm 4 mps 742 mmHg 73%
    02:00 +28°C° 1 mm 3 mps 742 mmHg 80%
    03:00 +27°C° 1 mm 2 mps 742 mmHg 86%
    04:00 +27°C° 0 mm 2 mps 742 mmHg 86%
    05:00 +27°C° 0 mm 2 mps 742 mmHg 87%
    06:00 +27°C° 0 mm 3 mps 742 mmHg 88%
    07:00 +29°C° 0 mm 3 mps 743 mmHg 79%
    08:00 +32°C° 0 mm 4 mps 743 mmHg 70%
    09:00 +34°C° 0 mm 4 mps 744 mmHg 61%
    10:00 +35°C° 0 mm 4 mps 743 mmHg 55%
    11:00 +37°C° 0 mm 3 mps 743 mmHg 49%
    12:00 +39°C° 0 mm 2 mps 742 mmHg 42%
    13:00 +39°C° 0 mm 2 mps 741 mmHg 40%
    14:00 +40°C° 0 mm 1 mps 741 mmHg 38%
    15:00 +40°C° 0 mm 1 mps 740 mmHg 35%
    16:00 +39°C° 0 mm 1 mps 740 mmHg 39%
    17:00 +37°C° 0 mm 2 mps 740 mmHg 43%
    18:00 +36°C° 0 mm 3 mps 741 mmHg 47%
    19:00 +35°C° 0.2 mm 3 mps 741 mmHg 52%
    20:00 +34°C° 0.2 mm 3 mps 742 mmHg 58%
    21:00 +31°C° 0.2 mm 3 mps 742 mmHg 63%
    22:00 +32°C° 0.1 mm 4 mps 742 mmHg 67%
    23:00 +30°C° 0.1 mm 4 mps 742 mmHg 71%

    29 September, Saturday

    Time Temperature Precipitation Wind Pressure Humidity
    00:00 +29°C° 0.1 mm 4 mps 742 mmHg 75%
    01:00 +29°C° 0.1 mm 4 mps 742 mmHg 77%
    02:00 +29°C° 0.1 mm 3 mps 742 mmHg 78%
    03:00 +28°C° 0.1 mm 3 mps 742 mmHg 79%
    04:00 +28°C° 0.4 mm 3 mps 742 mmHg 81%
    05:00 +28°C° 0.4 mm 2 mps 742 mmHg 82%
    06:00 +28°C° 0.4 mm 2 mps 743 mmHg 83%
    07:00 +29°C° 0 mm 3 mps 743 mmHg 77%
    08:00 +30°C° 0 mm 3 mps 744 mmHg 71%
    09:00 +33°C° 0 mm 4 mps 744 mmHg 65%
    10:00 +34°C° 0 mm 3 mps 743 mmHg 58%
    11:00 +36°C° 0 mm 3 mps 743 mmHg 52%
    12:00 +38°C° 0 mm 3 mps 742 mmHg 45%
    13:00 +38°C° 0 mm 2 mps 741 mmHg 43%
    14:00 +39°C° 0 mm 1 mps 741 mmHg 41%
    15:00 +39°C° 0 mm 1 mps 740 mmHg 39%
    16:00 +37°C° 0 mm 1 mps 741 mmHg 42%
    17:00 +37°C° 0 mm 2 mps 741 mmHg 45%
    18:00 +35°C° 0 mm 2 mps 741 mmHg 48%
    19:00 +35°C° 0 mm 2 mps 741 mmHg 52%
    20:00 +34°C° 0 mm 2 mps 742 mmHg 55%
    21:00 +33°C° 0 mm 3 mps 742 mmHg 58%
    22:00 +31°C° 0.2 mm 3 mps 742 mmHg 63%
    23:00 +30°C° 0.2 mm 3 mps 742 mmHg 68%

    30 September, Sunday

    Time Temperature Precipitation Wind Pressure Humidity
    00:00 +30°C° 0.2 mm 3 mps 742 mmHg 73%
    01:00 +29°C° 0.3 mm 2 mps 742 mmHg 76%
    02:00 +29°C° 0.3 mm 2 mps 742 mmHg 79%
    03:00 +28°C° 0.3 mm 2 mps 742 mmHg 81%
    04:00 +28°C° 0 mm 2 mps 742 mmHg 82%
    05:00 +28°C° 0 mm 2 mps 742 mmHg 83%
    06:00 +28°C° 0 mm 1 mps 743 mmHg 84%
    07:00 +29°C° 0 mm 2 mps 743 mmHg 77%
    08:00 +31°C° 0 mm 2 mps 744 mmHg 70%
    09:00 +33°C° 0 mm 3 mps 744 mmHg 63%
    10:00 +35°C° 0 mm 2 mps 744 mmHg 57%
    11:00 +36°C° 0 mm 2 mps 743 mmHg 51%
    12:00 +37°C° 0 mm 1 mps 743 mmHg 45%
    13:00 +37°C° 0 mm 1 mps 742 mmHg 45%
    14:00 +36°C° 0 mm 1 mps 742 mmHg 45%
    15:00 +36°C° 0 mm 1 mps 741 mmHg 45%
    16:00 +36°C° 0 mm 2 mps 741 mmHg 48%
    17:00 +35°C° 0 mm 2 mps 741 mmHg 51%
    18:00 +34°C° 0 mm 2 mps 741 mmHg 55%
    19:00 +32°C° 0 mm 2 mps 741 mmHg 57%
    20:00 +32°C° 0 mm 2 mps 742 mmHg 60%
    21:00 +31°C° 0 mm 2 mps 742 mmHg 62%
    22:00 +31°C° 0.1 mm 2 mps 742 mmHg 65%
    23:00 +30°C° 0.1 mm 2 mps 742 mmHg 68%
    Show more